Location: Unspecified
(0.0000°N, 0.0000°E)
Time: 11:13:25
(UTC+00:00)

Transit 2A - Pass Details

Date: 21 November 2019
Orbit: 602 x 957 km, 66.7° (Epoch: 14 December)

Event Time Altitude Azimuth Distance (km) Brightness Sun altitude
Rises 10:30:03 0° 213° (SSW) 3,515 9.5 62.8°
Reaches altitude 10° 10:32:47 10° 221° (SW) 2,526 8.9 63.3°
Maximum altitude 10:38:11 39° 288° (WNW) 1,201 7.3 64.1°
Drops below altitude 10° 10:43:07 10° 357° (N) 2,295 8.4 64.9°
Sets 10:45:32 0° 5° (N) 3,159 9.0 65.2°
